EVY23 YPAD-YSSY

Flight info

Callsign EVY23
Flight time N/A
Altitude 39000
Route AVDEN H247 CULIN Y59 TESAT H252 WLM DCT
Aircraft B38M/M-SADE2E3FGHIJ1J3J4J7M/LB1D1

Departure

Time N/A
Airport Adelaide International Airport (YPAD)

Arrival

Time 2026-04-30 10:31
Airport Sydney Kingsford Smith International Airport (YSSY)
Time Latitude Longitude Altitude Speed Heading
2026-04-30 10:11 -34.43929 150.07475 39397 ft 472 kts 62°
2026-04-30 10:12 -34.42370 150.10989 38149 ft 478 kts 62°
2026-04-30 10:12 -34.40759 150.14617 35866 ft 496 kts 62°
2026-04-30 10:12 -34.39123 150.18295 34039 ft 494 kts 62°
2026-04-30 10:12 -34.37514 150.21905 32745 ft 478 kts 62°
2026-04-30 10:13 -34.35956 150.25393 31458 ft 467 kts 63°
2026-04-30 10:13 -34.34450 150.28797 29953 ft 463 kts 63°
2026-04-30 10:13 -34.32898 150.32257 28315 ft 459 kts 62°
2026-04-30 10:13 -34.31407 150.35587 26815 ft 454 kts 62°
2026-04-30 10:14 -34.29917 150.38918 25383 ft 448 kts 62°
2026-04-30 10:14 -34.28441 150.42215 24002 ft 444 kts 62°
2026-04-30 10:14 -34.25522 150.48746 20925 ft 431 kts 62°
2026-04-30 10:15 -34.24124 150.51871 19530 ft 424 kts 62°
2026-04-30 10:15 -34.22714 150.55019 18071 ft 417 kts 62°
2026-04-30 10:15 -34.21343 150.58078 16579 ft 411 kts 61°
2026-04-30 10:15 -34.19992 150.61089 15148 ft 405 kts 61°
2026-04-30 10:16 -34.18663 150.64050 13718 ft 399 kts 61°
2026-04-30 10:16 -34.17366 150.66937 12243 ft 393 kts 61°
2026-04-30 10:16 -34.16058 150.69846 10831 ft 385 kts 61°
2026-04-30 10:17 -34.13571 150.75367 8065 ft 372 kts 61°
2026-04-30 10:17 -34.11166 150.80700 6758 ft 360 kts 61°
2026-04-30 10:17 -34.09989 150.83310 6262 ft 345 kts 61°
2026-04-30 10:18 -34.08907 150.85715 6193 ft 307 kts 61°
2026-04-30 10:18 -34.07946 150.87850 6171 ft 276 kts 61°
2026-04-30 10:18 -34.07067 150.89802 6145 ft 258 kts 61°
2026-04-30 10:19 -34.05553 150.93160 6034 ft 255 kts 61°
2026-04-30 10:19 -34.04704 150.95043 6013 ft 255 kts 61°
2026-04-30 10:19 -34.03859 150.96915 6007 ft 255 kts 61°
2026-04-30 10:19 -34.03177 150.98858 5808 ft 254 kts 79°
2026-04-30 10:20 -34.03301 151.00966 5452 ft 255 kts 108°
2026-04-30 10:20 -34.05417 151.04371 4778 ft 256 kts 131°
2026-04-30 10:20 -34.06628 151.05940 4450 ft 255 kts 131°
2026-04-30 10:21 -34.07449 151.06946 4228 ft 255 kts 138°
2026-04-30 10:21 -34.09029 151.07896 3923 ft 256 kts 163°
2026-04-30 10:21 -34.10766 151.08387 3554 ft 257 kts 165°
2026-04-30 10:21 -34.12507 151.08864 3240 ft 256 kts 165°
2026-04-30 10:22 -34.14242 151.09329 3034 ft 254 kts 165°
2026-04-30 10:22 -34.15971 151.09785 3004 ft 255 kts 165°
2026-04-30 10:22 -34.17707 151.10240 2999 ft 255 kts 166°
2026-04-30 10:22 -34.19442 151.10706 2997 ft 255 kts 162°
2026-04-30 10:23 -34.20962 151.11726 2997 ft 250 kts 133°
2026-04-30 10:23 -34.21830 151.13440 3007 ft 229 kts 103°
2026-04-30 10:23 -34.21828 151.15238 3008 ft 210 kts 72°
2026-04-30 10:23 -34.21281 151.16811 3008 ft 196 kts 63°
2026-04-30 10:24 -34.20676 151.18201 3021 ft 180 kts 53°
2026-04-30 10:24 -34.19711 151.19048 3040 ft 163 kts 25°
2026-04-30 10:24 -34.18703 151.19542 3021 ft 151 kts 23°
2026-04-30 10:24 -34.17760 151.19977 2987 ft 146 kts 22°
2026-04-30 10:25 -34.16778 151.20434 3029 ft 158 kts 23°
2026-04-30 10:25 -34.15709 151.20935 3038 ft 171 kts 23°
2026-04-30 10:25 -34.14582 151.21465 3017 ft 177 kts 22°
2026-04-30 10:25 -34.13427 151.22010 2991 ft 179 kts 22°
2026-04-30 10:26 -34.12270 151.22556 2993 ft 179 kts 20°
2026-04-30 10:26 -34.11065 151.22338 2899 ft 184 kts 338°
2026-04-30 10:26 -34.09888 151.21718 2635 ft 184 kts 342°
2026-04-30 10:26 -34.08708 151.21279 2410 ft 170 kts 349°
2026-04-30 10:27 -34.07612 151.20975 2226 ft 151 kts 352°
2026-04-30 10:27 -34.06635 151.20723 2038 ft 136 kts 352°
2026-04-30 10:27 -34.05737 151.20491 1875 ft 129 kts 352°
2026-04-30 10:27 -34.04870 151.20265 1694 ft 126 kts 352°
2026-04-30 10:28 -34.04017 151.20043 1525 ft 125 kts 352°
2026-04-30 10:28 -34.03166 151.19821 1367 ft 125 kts 352°
2026-04-30 10:28 -34.02320 151.19599 1218 ft 124 kts 352°
2026-04-30 10:28 -34.01473 151.19380 1035 ft 124 kts 352°
2026-04-30 10:29 -34.00625 151.19159 884 ft 124 kts 352°
2026-04-30 10:29 -33.99780 151.18938 716 ft 124 kts 351°
2026-04-30 10:29 -33.98930 151.18722 549 ft 124 kts 351°
2026-04-30 10:29 -33.98084 151.18502 399 ft 126 kts 349°
2026-04-30 10:30 -33.97241 151.18281 238 ft 122 kts 349°
2026-04-30 10:30 -33.96418 151.18065 68 ft 121 kts 349°
2026-04-30 10:30 -33.95625 151.17863 33 ft 107 kts 347°
2026-04-30 10:30 -33.95037 151.17705 30 ft 65 kts 348°
2026-04-30 10:31 -33.94714 151.17639 31 ft 41 kts 359°
2026-04-30 10:31 -33.94472 151.17699 33 ft 28 kts 22°
2026-04-30 10:31 -33.94364 151.17739 32 ft 11 kts
2026-04-30 10:31 -33.94273 151.17716 32 ft 16 kts 343°
2026-04-30 10:32 -33.94183 151.17689 32 ft 8 kts 346°
2026-04-30 10:32 -33.94163 151.17683 32 ft 5 kts 346°
2026-04-30 10:32 -33.94094 151.17663 31 ft 14 kts 347°
2026-04-30 10:32 -33.93977 151.17632 31 ft 20 kts 348°
2026-04-30 10:33 -33.93881 151.17635 32 ft 14 kts 44°
2026-04-30 10:33 -33.93843 151.17765 32 ft 19 kts 75°
2026-04-30 10:33 -33.93804 151.17929 33 ft 22 kts 73°
2026-04-30 10:33 -33.93758 151.18127 33 ft 27 kts 74°
2026-04-30 10:34 -33.93701 151.18365 33 ft 32 kts 74°
2026-04-30 10:34 -33.93634 151.18642 32 ft 37 kts 72°
2026-04-30 10:34 -33.93594 151.18856 32 ft 14 kts 98°
2026-04-30 10:34 -33.93592 151.18944 32 ft 8 kts 75°
2026-04-30 10:35 -33.93554 151.18968 32 ft 5 kts 349°
2026-04-30 10:35 -33.93527 151.18959 32 ft 3 kts 343°
2026-04-30 10:35 -33.93522 151.18957 32 ft 0 kts 343°